This is the latest recevied weather packets stored in our database for station/object K0SDS. If no packets are shown the sender has not sent any weather packets the latest 10 day(s).
| Time | Temp. | Humidity | Pressure | Rain* | Wind** | Luminosity | Snow |
|---|---|---|---|---|---|---|---|
| 1777842594 | 28.89° C | 39% | 1008.8 hPa | 0 mm | - | 510 W/m² | - |
| 1777842292 | 28.89° C | 38% | 1009.2 hPa | 0 mm | - | 485 W/m² | - |
| 1777841992 | 28.33° C | 39% | 1009.1 hPa | 0 mm | - | 488 W/m² | - |
| 1777841689 | 28.33° C | 37% | 1009 hPa | 0 mm | - | 506 W/m² | - |
| 1777841385 | 28.33° C | 38% | 1009.2 hPa | 0 mm | - | 534 W/m² | - |
| 1777841083 | 28.33° C | 38% | 1009.2 hPa | 0 mm | - | 557 W/m² | - |
| 1777840779 | 28.33° C | 41% | 1009.5 hPa | 0 mm | - | 553 W/m² | - |
| 1777840477 | 27.78° C | 40% | 1009.6 hPa | 0 mm | - | 529 W/m² | - |
| 1777840173 | 27.78° C | 41% | 1009.6 hPa | 0 mm | - | 583 W/m² | - |
| 1777839871 | 27.78° C | 42% | 1009.6 hPa | 0 mm | - | 597 W/m² | - |
| 1777839565 | 27.22° C | 42% | 1009.5 hPa | 0 mm | - | 531 W/m² | - |
| 1777839261 | 27.22° C | 39% | 1009.8 hPa | 0 mm | - | 579 W/m² | - |
| 1777838959 | 27.78° C | 38% | 1009.5 hPa | 0 mm | - | 528 W/m² | - |
| 1777838655 | 27.78° C | 40% | 1009.5 hPa | 0 mm | - | 510 W/m² | - |
| 1777838352 | 27.22° C | 38% | 1009.9 hPa | 0 mm | - | 578 W/m² | - |
| 1777838049 | 27.22° C | 45% | 1009.7 hPa | 0 mm | - | 579 W/m² | - |
| 1777837745 | 27.22° C | 38% | 1010.1 hPa | 0 mm | - | 626 W/m² | - |
| 1777837442 | 27.22° C | 37% | 1010 hPa | 0 mm | - | 626 W/m² | - |
| 1777837138 | 26.67° C | 44% | 1010 hPa | 0 mm | - | 638 W/m² | - |
| 1777836834 | 27.22° C | 35% | 1010.1 hPa | 0 mm | - | 647 W/m² | - |
| 1777836529 | 26.67° C | 38% | 1009.9 hPa | 0 mm | - | 669 W/m² | - |
| 1777836225 | 27.22° C | 35% | 1010.2 hPa | 0 mm | - | 667 W/m² | - |
| 1777835922 | 26.67° C | 39% | 1009.9 hPa | 0 mm | - | 635 W/m² | - |
| 1777835619 | 26.67° C | 36% | 1010.1 hPa | 0 mm | - | 604 W/m² | - |
| 1777835316 | 26.67° C | 41% | 1010.4 hPa | 0 mm | - | 650 W/m² | - |
* Rain latest hour (hover to see other rain measurements)
** Current wind speed in m/s (hover to see current wind gust speed)